GFSMW_prec_radar_108.txt.gz
Reflectivity
-20 -20 -20 -20 -20 -20 -20 -20 -20 -20 -20 -20 -20 -20 -20 -20 -20 -20 -20 -20 -20 -20 -20 -20 -12 11 1 -20 -20 -20 -20 -20 -20 2 -20 -20 -18 -15 -20 -20 -16 -20 -20
-20 -20 -20 -20 -20 -20 -20 -20 -20 -20 -20 -20 -20 -20 -20 -20 -20 -20 -20 -20 -20 -13 -12 -19 -20 15 9 17 18 -15 -13 0 -0 5 -20 -14 -17 -20 -11 -9 -4 -20 -19
-20 -20 -20 -20 -20 -20 -20 -20 -20 -20 -20 -20 -20 -20 -20 -20 -20 -20 -20 -20 -13 -20 -20 -7 -13 -7 4 48 37 19 -20 -20 -8 9 -20 -20 -20 -20 -20 1 -6 -20 -20
-20 -20 -20 -20 -20 -20 -20 -20 -20 -20 -20 -20 -20 -20 -20 -20 -20 -20 -20 -20 -20 -20 -20 -20 -20 -20 29 18 36 44 19 -10 -20 -9 -12 -20 -20 -20 -20 -17 13 -20 -20
-20 -20 -20 -20 -20 -20 -20 -20 -20 -20 -20 -20 -20 -20 -20 -20 -20 -20 -20 -20 -20 -6 -20 -17 -20 20 29 -20 -20 6 8 -16 -20 -5 -3 -8 -6 -18 -20 -20 -20 12 -20
-20 -20 -20 -20 -20 -20 -20 -20 -20 -20 -20 -20 -20 -20 -20 -20 -20 -20 -20 -20 -20 -20 -1 8 -6 11 11 4 -20 -15 30 13 -20 -14 -1 -19 -8 -20 -20 -20 -20 -20 -20
-12 -9 -20 -20 -11 -20 -19 -20 -20 -20 -20 -20 -20 -7 7 1 -18 -20 -20 -20 -20 -20 29 41 26 0 -6 2 -20 8 44 31 -4 -20 8 -1 -19 -4 -20 -20 -20 -20 -20
-20 -20 -20 -20 -20 -20 -20 -20 -20 -20 -20 -20 -20 -20 11 15 -4 7 -12 -20 -20 -20 29 45 26 16 2 13 17 7 38 -17 -20 -20 -20 2 -18 6 -20 -20 -20 -0 -20
-20 -2 3 -4 -18 -20 -20 -20 -20 -20 -20 -20 -20 -20 3 8 17 12 14 -9 -20 -20 -13 11 -10 -20 9 16 19 -13 39 27 -1 12 23 31 12 -20 8 -20 -20 -20 -20
-12 -14 -20 -20 -20 -20 -20 -20 -20 -20 -20 -20 -20 -20 -5 -8 17 15 22 10 -20 -13 -14 -6 -8 -10 -20 2 25 -11 -7 -6 -1 -6 8 35 8 31 7 -20 -18 -20 -20
-20 -20 -20 -20 -20 -20 -20 -20 -20 -20 -20 -20 -20 -20 -20 -20 -2 12 20 -14 16 13 -11 35 -10 -1 -2 1 18 5 18 30 -1 -13 -2 34 31 -20 -1 8 -7 -20 -20
-20 -20 -20 -20 -20 -20 -20 -20 -20 -20 -20 -20 -7 -20 -20 -20 -4 -20 -20 22 -6 30 9 -9 11 0 5 9 -1 23 -20 -12 -20 -19 34 27 31 30 5 12 7 -4 -9
-20 -20 -20 -20 -20 -20 -20 -20 -20 -13 -20 -20 -20 -20 -20 -20 -20 -14 -18 2 4 36 33 35 37 12 31 13 9 -5 -20 -20 -17 26 45 44 30 20 12 21 6 8 -5
-20 -20 -20 -20 -20 -20 -20 -20 -20 -20 -20 -20 -3 -1 -20 -20 -18 7 -1 -5 15 16 -4 21 35 31 39 -18 -6 -17 -20 4 18 26 21 27 26 -20 -6 -2 4 -3 -11
-20 -20 -20 -20 -20 -20 -20 -20 -20 -20 -6 -20 -17 -17 -20 -20 -20 -10 -13 -10 -6 12 9 28 -3 29 35 29 11 -20 -14 -7 -12 -6 -6 13 -15 -4 20 -12 -0 -19 -5
-20 -20 -20 -20 -1 -20 -15 -20 -0 -4 -20 -18 -16 -17 -8 -6 -2 8 10 18 25 34 39 22 35 31 28 20 -15 9 22 -12 8 20 19 -13 16 11 12 12 19 11 9
-11 -15 -14 1 -2 6 7 3 0 -6 -3 -8 -14 -15 -9 -20 1 16 20 20 6 11 30 28 33 31 24 28 27 27 17 25 -7 7 23 15 -10 -1 -20 -6 6 1 -7
-0 0 3 5 3 10 2 2 -6 -9 -2 -11 -19 4 18 13 -2 12 15 19 15 19 24 32 29 36 40 25 29 23 17 -2 7 26 7 -20 -20 -20 -20 -20 -20 -20 -14
9 -0 6 4 22 9 7 14 -17 -7 -1 -4 1 0 17 23 20 -0 3 19 18 11 -6 -12 12 23 29 36 33 33 30 19 14 -6 -15 4 10 -20 -18 -18 -20 -20 -20
6 5 5 13 11 27 23 11 -20 -20 -16 2 14 15 24 13 11 25 16 20 11 14 -6 7 18 23 23 36 40 33 28 17 18 -1 2 24 6 13 11 -8 -20 -19 -12
6 13 21 19 19 21 25 11 6 -20 -7 8 6 -9 -20 -20 1 13 15 24 18 -6 -5 0 15 22 26 29 31 32 35 28 20 22 18 -8 16 12 17 13 -5 -0 8
11 12 13 15 14 14 10 7 -9 -20 -20 -14 -19 -20 -20 -20 -19 -7 -9 7 9 8 5 8 11 11 16 24 27 34 36 31 27 34 27 4 6 11 15 13 22 10 11
13 15 12 -4 -20 -20 -20 -20 -20 -20 -20 -20 -20 -20 -20 -20 -20 -20 -20 -17 -5 -7 -8 -9 9 18 21 22 25 26 27 28 28 29 28 22 16 18 16 17 15 16 10
-3 -20 -20 -20 -20 -20 -20 -20 -20 -20 -20 -20 -20 -20 -20 -18 -20 -20 -20 -20 -20 -20 -20 -15 -7 -3 5 13 21 23 23 22 24 26 26 24 23 22 23 16 17 12 14
-20 -20 -20 -20 -20 -20 -20 -20 -20 -20 -20 -20 -20 -20 -20 -20 -20 -20 -20 -20 -20 -20 -20 -20 -6 -17 -5 1 7 9 14 20 21 21 21 20 23 22 23 23 24 25 21
-20 -20 -20 -20 -20 -20 -20 -20 -20 -20 -20 -20 -20 -20 -20 -20 -20 -17 -19 -20 -20 -20 -20 -20 -20 -20 -20 -15 -4 -1 1 2 6 10 13 17 19 18 18 18 19 18 17

GFSMW_prec_radar_111.txt.gz
Reflectivity
8 -20 -20 -20 -20 -20 -20 -20 -20 -20 -20 -20 -20 -20 -20 -20 -20 -20 -20 -20 -20 -20 -20 -20 -20 -20 -2 -20 -20 29 -20 -20 -18 -20 -20 -20 -20 3 -20 7 13 7 -20
12 -20 -20 -20 -20 -20 -20 -20 -20 -20 -20 -20 -20 -20 -20 -20 -20 -20 -20 -20 -20 -20 -20 -20 -20 -20 -16 33 -6 33 35 -7 17 17 -3 -15 -12 -20 -15 9 0 -13 -20
5 -20 -20 -20 -20 -20 -20 -20 -20 -20 -20 -20 -20 -20 -20 -20 -20 -20 -20 -20 -20 -20 -20 -1 17 -20 -6 -0 12 16 36 38 35 31 21 -3 -20 -20 -20 -11 7 11 -20
14 -12 -20 -20 -20 -20 -20 -20 -20 -20 -20 -20 -20 -20 -20 -20 -20 -20 -20 -20 -20 -20 -20 -20 10 -12 -12 24 14 12 30 37 41 33 35 8 -17 -20 -20 -20 -7 6 -20
-10 -20 -20 -18 -18 -20 7 -20 -20 -20 -20 -20 -20 -20 -20 -20 -20 -20 -20 -20 -20 -20 -20 -20 -20 19 26 9 -20 25 -20 -20 -3 18 37 6 -11 -20 -20 -20 -20 12 6
5 -20 -19 -17 12 -16 -20 -20 -13 -3 -10 -20 -20 -20 -20 -20 -20 -20 -20 -20 -20 -20 -20 -20 -20 -20 -17 27 8 12 26 -20 -20 -20 10 11 -18 -20 -20 -20 -20 -20 -20
-20 -20 -20 1 -12 11 12 -20 -18 -1 -5 -17 -15 -8 -17 -20 -20 -20 -20 -20 -20 -20 -20 -20 -20 -20 1 29 32 30 13 16 20 -18 26 14 -16 -20 -20 -20 -20 -20 -20
22 12 12 -5 -20 -20 -20 -20 -20 -20 -20 -18 -19 -20 -20 -20 -20 -20 -15 -8 -2 -10 -20 -20 -20 -20 -20 -19 13 30 32 7 -20 -20 -14 -19 -19 6 -20 -20 -20 -20 -20
-10 7 5 -20 -20 -5 -15 -18 -19 -20 -20 -20 -20 -20 -20 -20 -20 -20 6 2 7 12 0 -20 -20 -20 -20 -13 19 31 32 -16 -14 -13 -20 7 9 -20 -20 -20 -20 -20 -20
27 14 -1 -9 7 -8 -12 -20 -20 -19 -20 -20 -20 -20 -20 -20 -20 5 -0 10 7 14 7 -20 -20 -20 -20 -2 -7 17 16 -15 17 31 20 34 32 22 -9 -18 30 -20 -20
13 17 5 -15 -20 -20 -20 -20 -20 -20 -20 -20 -20 -20 -20 -20 -20 -20 16 15 9 16 -3 -20 -17 -20 -18 28 26 4 -14 12 5 33 7 20 -15 -3 -16 21 18 26 -20
13 0 -1 -20 -20 -20 -20 -20 -20 -20 -20 -20 -20 -20 -20 -20 -20 -20 -20 -14 -19 -20 -20 18 5 -10 5 28 25 35 27 14 17 -16 26 6 29 36 30 -5 20 28 25
-19 -20 -20 -20 -20 -20 -20 -20 -20 -20 -20 -20 -20 -20 -20 -20 -20 -20 -20 -20 -20 -20 -20 -20 -20 24 13 33 6 22 22 -4 -11 32 32 11 40 27 -3 10 25 16 -13
-20 -20 -20 -20 -20 -20 -20 -20 -20 -20 -20 -20 -20 -20 -19 -17 -20 -20 -20 -20 -20 -20 -20 -18 -18 -20 28 41 32 26 22 7 21 32 29 -1 -18 -20 13 20 21 24 12
-20 -20 -20 -20 -10 -20 -20 -20 -20 -20 -20 -20 -20 -19 -12 -14 -20 -20 -20 -20 -20 -20 -20 -7 21 11 37 35 34 23 27 -5 28 29 -20 -18 21 15 21 29 6 18 11
-20 -20 -20 -20 -20 -12 1 -20 -3 -13 -20 -20 0 -5 -13 3 -18 -20 -20 -20 -7 6 -12 -20 -20 -12 15 24 27 31 30 23 27 -20 -20 22 2 28 26 13 -19 8 17
-9 0 4 0 1 -3 6 -2 -1 -8 -17 -17 -6 -1 -3 -7 -7 -20 -20 -20 -14 1 6 -13 -6 -10 20 27 24 28 24 22 22 -11 -20 -20 11 24 8 8 11 8 -2
-20 -8 -13 -11 -14 -1 -10 4 10 -4 -9 -17 -14 -9 -17 -20 -6 -2 -12 -20 -18 -5 1 5 3 13 25 25 36 45 27 27 30 34 3 12 14 2 17 14 26 2 -12
-7 -20 -10 -2 2 9 16 18 9 14 -4 -13 -9 2 12 12 10 13 13 7 5 4 14 8 -0 1 17 33 30 30 29 48 22 22 18 11 13 27 24 10 -18 -20 -20
-20 -18 -1 -10 -6 10 25 25 15 10 9 9 6 2 6 6 10 -3 8 14 13 16 18 15 8 2 8 32 21 28 37 36 24 19 11 30 28 35 4 -0 -19 -18 -20
-1 -1 -2 10 15 16 16 13 14 8 3 -14 -20 -20 -20 2 2 -2 -20 -18 -17 -20 -11 0 -1 12 17 18 33 24 30 33 21 30 30 21 23 29 19 19 -2 9 -4
3 6 6 15 18 19 15 7 -16 -19 -10 -9 -19 -15 -20 -18 -17 -6 -20 -20 -20 -20 -20 -20 -18 -20 -10 7 18 33 20 25 30 32 28 26 29 26 17 18 15 8 8
7 13 14 8 -2 -18 -20 -20 -20 -20 -20 -20 -20 -20 -20 -20 -20 -20 -20 -20 -20 -20 -20 -20 -20 -20 -20 -6 -14 6 20 24 26 28 29 30 29 23 19 18 9 7 2
-6 -20 -20 -20 -20 -20 -20 -20 -20 -20 -20 -20 -20 -20 -20 -20 -20 -20 -20 -20 -20 -20 -20 -20 -20 -20 -20 -20 -20 -8 -8 -2 11 20 22 23 24 24 24 25 21 20 2
-20 -20 -20 -20 -20 -20 -20 -20 -20 -20 -20 -20 -20 -20 -20 -20 -20 -20 -20 -20 -20 -20 -20 -19 -20 -20 -19 -7 -20 -20 -6 -3 -6 -7 -2 9 16 19 21 22 25 26 24
-20 -20 -20 -20 -20 -20 -20 -20 -20 -20 -20 -20 -20 -20 -20 -20 -20 -20 -20 -14 -19 -20 -20 -20 -6 -16 -13 2 -20 -20 -20 -16 -7 -2 -3 -8 -20 -12 8 17 21 22 22

GFSMW_prec_radar_114.txt.gz
Reflectivity
-4 -20 -20 -20 -20 -20 -20 -20 -20 -20 -20 -20 -20 -20 -20 -20 -20 -20 -20 -20 -20 -20 -20 -20 -6 -3 1 -20 -20 35 -10 35 6 4 -1 -10 5 12 11 7 -16 -20 -20
-0 -18 -20 -20 -20 -20 -20 -20 -20 -20 -20 -20 -20 -20 -20 -20 -20 -20 -20 -20 -20 -20 -20 -20 -20 2 10 -13 -11 33 23 16 30 36 30 24 6 19 7 10 9 0 -14
29 -1 -14 -20 -20 -20 -20 -20 -20 -20 -20 -20 -20 -20 -20 -20 -20 -20 -20 -20 -20 -20 -20 -20 -20 -20 8 11 3 16 27 -3 28 28 34 42 33 30 11 1 -18 -20 5
8 -16 6 -1 -20 -20 -20 -20 -20 -17 -20 -20 -20 -20 -20 -20 -20 -20 -20 -20 -20 -20 -20 -20 -20 -20 -20 -16 11 -10 -14 -2 -20 -13 14 50 43 34 25 12 -19 -20 -20
38 26 3 -15 -20 -20 -20 -20 -20 -20 4 -17 -20 -20 -20 -20 -20 -20 -20 -20 -20 -20 -20 -20 -20 -20 -20 -20 11 14 -15 21 7 -20 21 20 32 31 32 14 12 -8 -20
-10 27 13 -4 -20 -20 -20 -20 -19 -19 -20 -20 -4 -20 -20 -20 -20 -20 -20 -20 -20 -20 -20 -20 -20 -20 -20 -20 -20 8 -10 -3 16 20 13 14 -6 -0 8 4 22 -8 -17
25 15 10 -3 -11 -20 -20 -20 1 6 7 -8 -7 -15 -20 -20 -20 -20 -20 -20 -20 -20 -20 -20 -20 -20 -20 -20 -17 13 -4 9 14 20 -7 13 -16 -19 -20 -5 20 -20 -20
31 20 7 10 0 -20 -16 -4 -1 -20 -20 -13 -3 -20 -20 -20 -20 -19 -20 -20 -20 -20 -20 -20 -20 -14 -7 -20 -20 22 -8 13 22 -17 32 28 20 -1 -20 -20 24 -19 -20
27 16 9 20 14 9 -4 -20 -19 -19 -18 -20 -19 -19 -19 -20 -20 -20 -20 -6 -20 -20 -20 -20 -20 -13 16 -12 -20 7 13 21 16 -17 -17 -11 -15 30 28 7 20 -20 -20
40 34 30 28 15 -3 -18 -6 -19 -20 -20 -20 -8 12 6 -20 -20 -20 -20 -20 -20 -20 -19 -15 -20 -2 1 -5 -20 -20 -20 5 -20 26 33 12 -10 11 31 16 29 6 -5
27 21 16 12 17 12 -12 -20 -20 -20 -20 -20 -20 -20 -20 -20 -20 -20 -20 -20 -20 -20 -20 -2 9 8 12 -1 -20 -20 -20 -12 13 17 18 -20 -20 -19 -10 32 25 24 -9
17 6 -19 -9 6 0 -7 -20 -20 -20 -20 -20 3 5 -20 -20 -20 -20 -20 -20 -20 -20 -20 -20 -20 -20 -20 -16 4 21 -20 -20 28 -6 29 -20 23 -17 -2 35 -7 -20 28
9 15 5 -20 -20 -20 -20 -20 -20 -20 -20 -19 -20 -12 -20 -20 -20 -20 -20 -20 -20 -20 -20 -20 -20 -20 -20 -20 13 25 27 24 20 -20 -20 0 -18 20 -20 -18 -20 -20 21
-14 -18 3 -10 -20 -20 -20 -20 -20 -20 -20 -20 -17 -13 -20 -20 -20 -20 -20 -20 -20 -20 -20 -20 -20 -20 -20 -20 -20 -20 6 20 7 -2 -20 27 26 1 -18 -2 33 31 28
-20 -19 -20 -20 -7 -6 -20 -20 -20 -20 -20 -20 -16 -18 -4 2 -6 -13 -20 -20 -20 -20 -5 13 9 6 -10 3 8 2 9 33 31 36 26 24 41 44 35 10 11 15 27
-7 -12 -20 -20 -20 -11 -15 -20 -20 -20 -20 -20 -20 -20 -20 -20 1 -20 -19 -20 -20 -20 5 -4 2 -6 -1 20 12 19 25 28 42 27 22 43 14 -8 11 -17 -8 18 9
-19 -6 1 -2 -1 -1 2 -3 -20 -20 -20 -20 -20 -20 -20 -20 -18 -17 -19 -9 1 -11 -20 -9 5 6 3 15 28 28 20 14 35 37 23 20 9 10 -20 11 31 34 33
-20 -13 -20 -6 -5 9 -3 -10 -20 -20 -20 -20 -20 -20 -20 -18 -3 3 3 -1 9 9 -11 4 11 15 23 27 19 25 28 22 31 32 31 33 4 -2 8 22 32 24 14
-20 -19 -4 4 3 -18 -19 -20 -20 -9 -10 -14 -20 -19 -19 -20 -20 -20 -20 -12 -19 -11 4 4 12 19 22 33 25 25 25 21 30 29 33 9 22 30 25 25 41 17 14
6 3 -19 -20 -20 -20 -20 -10 5 5 6 -8 1 -5 -4 -20 -20 -20 -20 -16 -12 -11 -15 -0 -9 10 16 19 22 19 18 30 29 36 39 43 36 32 22 18 26 47 15
2 -20 -20 -20 -20 -19 -0 6 -4 -4 -20 -0 -20 -20 -20 -20 -20 -18 -11 0 4 5 6 7 3 7 10 -1 6 22 19 19 22 25 31 30 31 37 19 28 28 31 16
-16 -20 -20 -20 -20 -12 -16 -7 -8 -20 -20 -20 -20 -20 -20 -20 -20 -8 -7 -4 0 -0 2 5 1 2 0 -6 5 8 3 9 18 23 26 30 26 28 23 38 32 35 16
-20 -20 -20 -20 -20 -20 -20 -20 -20 -18 -20 -20 -20 -20 -20 -20 -20 -20 -20 -20 -19 -6 -8 -20 -19 -20 -19 -20 -3 -1 4 9 7 9 14 17 16 25 29 29 25 27 15
-20 -20 -20 -20 -20 -20 -20 -20 -20 -20 -20 -20 -20 -20 -20 -20 -20 -20 -20 -20 -20 -20 -20 -20 -20 -20 -5 -20 -20 -10 3 4 6 3 8 -3 -9 12 19 23 26 28 26
-20 -20 -20 -20 -20 -20 -20 -20 -20 -20 -20 -20 -20 -20 -20 -20 -20 -20 -10 -20 -20 -20 -19 -14 0 -11 -20 2 -17 -20 -20 -17 -13 -4 2 -2 8 3 -4 13 18 22 24
-20 -20 -20 -20 -20 -20 -20 -20 -20 -20 -20 -20 -20 -20 -20 -20 -20 -20 -20 1 -20 -20 -14 -2 -1 -20 -7 -3 1 -6 -20 -20 -20 -20 -18 -17 -5 -1 0 3 5 11 12

GFSMW_prec_radar_117.txt.gz
Reflectivity
-20 -20 -20 -20 -20 -20 -20 -20 -20 -20 -20 -20 -20 -20 -20 -20 -20 -20 -20 -20 -20 -20 -20 -20 0 -20 -7 18 34 30 -20 -10 44 29 23 33 30 28 30 32 30 19 -16
-20 -20 -20 -20 -20 -20 -20 -20 -20 -20 -20 -20 -20 -20 -20 -20 -20 -20 -20 -20 -20 -20 -20 -20 -20 -20 -20 -20 8 10 1 17 -20 16 33 33 28 19 25 37 35 29 17
-20 -20 -20 -20 -17 -12 -20 -14 -11 -20 -20 -20 -20 -20 -20 -20 -20 -20 -20 -20 -20 -20 -20 -20 -20 -20 -20 -20 -20 9 5 -5 4 -18 28 22 17 1 -14 23 41 34 24
-20 -20 -20 -20 -2 25 1 14 -15 -20 -20 -20 -20 -20 -20 -20 -20 -20 -20 -20 -20 -20 -20 -20 -20 -20 -20 -20 -20 -20 14 11 -11 -20 -18 -20 -20 -20 -12 -16 22 44 26
-15 -6 22 20 2 7 33 20 -3 -20 -20 -20 -20 -20 -20 -20 -20 -20 -20 -20 -20 -20 -20 -20 -20 -5 -12 -20 -19 -20 -20 9 -1 -20 -20 -20 -20 -20 -20 -20 -20 18 19
17 10 10 9 -19 22 13 18 7 -20 -19 -16 -20 -20 -20 -16 -10 -20 -20 -20 -20 -20 -20 -20 -20 -20 -20 -20 -20 -2 5 12 -7 -14 -19 -16 -20 -20 -20 -20 -20 -16 6
19 31 28 21 26 33 34 18 8 -17 4 -20 -20 -20 -2 -20 16 12 5 -14 -19 -20 -20 -20 -20 -20 -20 -7 -20 -20 -9 10 6 -5 12 -20 -4 -20 -20 -20 -20 -20 -20
36 31 30 23 18 14 28 1 -18 -1 -20 -20 -20 -20 6 -20 -7 -16 -18 -5 -16 -18 -20 -20 -20 -18 -20 -20 -9 9 -8 -9 16 12 -14 16 8 -20 2 -20 -20 -20 -20
32 32 42 37 21 16 8 -12 -13 -16 -20 -20 -20 -20 -20 -18 -3 5 -20 -17 -20 -11 -2 -20 -20 -20 7 -3 4 13 6 -5 6 22 1 18 22 10 -20 -14 -20 -20 -13
15 17 29 30 30 18 16 8 9 -1 -20 -17 -20 -20 -20 -20 -20 -17 -4 -11 -20 -20 -20 -20 -20 -20 -20 1 14 11 -4 1 17 10 2 4 4 -7 9 -11 -17 -11 -20
18 26 28 33 29 31 29 26 25 17 8 5 -20 -20 -9 -20 -20 -16 -20 -3 -6 -20 -20 -20 -20 -20 -20 -20 -9 2 -1 9 -16 9 7 -9 9 -20 9 19 27 29 -20
-13 10 16 18 20 16 13 -1 -18 -0 -19 -20 -20 -20 -18 -20 -20 -20 -20 -20 -20 -20 -20 -20 -20 -20 -20 -20 -20 -11 -20 22 -20 -5 -7 -6 -9 -20 23 -16 -1 -20 -20
-20 -20 -14 -4 4 9 -17 -20 -20 -20 -20 -20 -20 -20 -16 -7 -6 -19 -20 -20 -20 -20 -20 -20 -20 -20 -20 -20 -20 -20 16 11 10 -20 4 -20 33 11 -9 1 -6 27 27
-20 -20 -20 -20 -12 -17 -17 -20 -20 -20 -20 -20 -5 -20 -20 -20 -20 -20 -11 -20 -20 -20 -20 -20 -20 -20 -20 -20 -20 -20 -20 -9 -6 24 32 15 9 -14 -12 1 -5 25 25
-20 -20 -20 -12 -20 -7 -20 -20 -20 -14 -20 -20 -20 -14 -19 -20 -20 -20 -20 -20 -20 -20 -20 -20 -20 -18 -18 -11 -20 -20 -20 -20 -20 -20 -5 21 13 8 -20 -19 -4 8 22
-20 -20 -20 -20 -4 -1 -17 -20 -2 -5 -20 -4 -14 -20 -20 -20 -20 -20 -20 -20 -20 -20 -20 -20 -20 -20 4 4 0 -6 1 3 4 3 0 1 4 7 21 28 1 -20 -19
-20 -20 -20 -17 -15 -6 4 -3 2 -20 -20 -20 -20 -20 -20 -20 -20 -20 -20 -20 -20 -20 -20 -20 -20 -20 -8 6 9 14 10 21 29 23 16 4 19 25 48 32 13 7 20
-20 -20 -18 -20 -20 -13 7 -12 6 -7 -19 -13 -6 -19 -19 -11 -20 -20 -20 -20 -20 -20 -20 -20 -20 -20 -7 14 20 13 13 20 23 28 22 37 40 45 21 15 -7 -20 -12
-20 -20 -14 -11 -20 -20 -20 9 -18 5 -13 -15 -3 -16 -4 -19 -20 -20 -20 -20 -20 -20 -20 -20 -20 -20 -5 18 29 26 21 23 22 22 24 24 32 38 40 26 3 7 17
-3 -16 -20 -20 -20 -20 -20 -13 -1 2 4 -4 -13 -12 -20 -20 -20 -20 -20 -20 -20 -20 -20 -18 -18 -20 -20 -12 5 14 19 21 20 20 25 24 32 31 28 21 5 21 28
-20 -20 -20 -20 -20 -20 -20 -20 -20 -16 -5 -19 -20 -20 -20 -20 -20 -20 -20 -20 -20 -20 -17 -15 -6 -4 -0 3 8 11 15 14 11 13 20 24 28 29 30 35 26 29 35
-20 -20 -20 -20 -20 -20 -20 -20 -19 -20 -20 -20 -17 -20 -20 -20 -20 -20 -20 -20 -20 -20 -20 -20 -20 -9 -3 -1 5 7 10 12 14 12 9 14 14 22 27 27 32 24 31
-20 -20 -20 -20 -20 -20 -15 -6 3 -2 -20 -20 -20 -20 -20 -20 -20 -20 -20 -20 -20 -20 -20 -20 -20 -19 -12 -1 -3 0 1 1 1 1 9 15 17 7 19 24 26 28 25
-20 -20 -20 -20 -20 -20 -20 -20 -20 -20 -20 -20 -20 -20 -20 -20 -20 -13 -20 -20 -20 -20 2 -20 -20 -20 -20 -11 -20 -20 -20 -8 -16 -2 1 1 7 14 16 17 18 15 22
-20 -20 -20 -20 -20 -20 -20 -20 -20 -20 -20 -20 -20 -20 -20 -20 -20 -7 -20 -20 -20 -20 -20 -3 -20 -13 -20 -18 -0 -11 -20 -20 -20 -20 -10 -0 -5 -1 8 11 16 12 6
-20 -20 -20 -20 -20 -20 -20 -20 -20 -20 -20 -20 -20 -20 -20 -20 -20 -20 -20 -20 -20 -20 -20 -20 -20 -20 -16 -20 -18 -17 -20 -20 -20 -20 -20 -16 -6 -10 -0 5 5 13 11

GFSMW_prec_radar_120.txt.gz
Reflectivity
-20 -20 -20 -20 -20 -20 -20 -20 -20 -20 -20 -20 -20 -20 -20 -20 -20 -20 -20 -20 -20 -20 -20 -20 -20 -20 -20 -20 -19 7 33 30 24 28 27 31 22 30 12 -11 33 29 31
-20 -20 -20 -20 -20 -20 -20 -20 -20 -20 -20 -20 -20 -20 -20 -20 -20 -20 -20 -20 -20 -20 -20 -20 -20 -20 -20 -20 -20 -12 8 -16 -2 19 36 22 -19 -20 -5 -20 21 28 37
-20 -20 -20 -20 -20 -20 -20 -20 -20 -20 -20 -20 -6 -19 -20 -20 -20 -20 -20 -20 -20 -20 -20 -20 -20 -20 -20 -19 -20 -20 -20 9 -9 6 24 16 -4 7 24 14 -20 -1 -18
-20 -20 -20 -20 -20 -20 -20 -19 -20 1 19 -20 2 -8 -20 -20 -20 -20 -20 -20 -20 -20 -20 -20 -20 -20 -18 -8 -20 -20 -20 -15 9 -14 -7 -1 -20 7 -20 -15 -13 -20 -20
-13 -3 2 -19 -18 -12 -20 -14 4 20 34 13 8 -16 -20 -20 -12 -20 -20 -20 -20 -20 -20 -20 -20 -20 -4 -7 -20 -16 -13 -20 -9 2 -7 -7 -13 19 -20 -20 -20 -20 -20
19 20 2 15 20 13 -20 16 1 28 13 34 11 7 7 -6 -9 -20 -20 -20 -19 -20 -20 -20 -20 -20 -20 -12 -2 3 -6 -9 -7 6 12 1 2 -6 -20 -20 -20 -20 -20
5 15 7 16 30 27 -8 -18 1 -2 1 10 10 -2 3 -7 -20 -14 -12 -20 -20 -20 -20 -20 -20 -20 -20 -20 -20 -13 -18 0 -2 -20 7 9 7 -1 -16 3 -17 -20 -20
-19 6 20 22 15 28 31 11 19 22 24 25 15 21 6 -20 -20 -20 -20 -20 -20 -20 -7 -14 -20 -20 -20 -19 -20 -20 -5 7 11 4 -20 15 10 5 13 16 7 8 -20
-16 -20 -7 13 11 17 34 12 2 -7 -5 -3 -20 3 -1 -11 -19 -20 -20 -20 -20 -20 -20 -8 0 -17 -20 -20 -7 -4 3 6 7 7 1 14 -12 5 5 -0 17 16 -20
-17 -20 -20 -20 -20 -4 20 17 -2 -19 -16 -19 -7 -16 -14 -14 -13 -20 -20 -20 -20 -20 -20 -20 -10 -18 -20 -20 -16 -20 -19 -0 -15 13 7 11 -3 6 -11 6 12 8 7
-20 -20 -20 -20 -20 -19 -11 17 12 10 6 3 -3 -3 -9 -4 -10 -3 -2 -20 -20 -20 -20 -20 -20 -20 -20 -15 -20 -17 -20 -20 -12 5 5 15 -3 17 -1 2 -6 11 15
-20 -20 -20 -20 -20 -20 -7 -0 5 8 -15 -2 -14 -16 -6 -5 -20 -14 -6 -20 -20 -20 -20 -20 -20 -20 -20 -20 -20 -20 -20 -20 5 -0 19 13 16 5 -2 13 -14 -19 -14
-20 -20 -20 -20 -20 -20 -20 -6 14 11 5 -5 -9 -20 -20 -20 -17 -13 -20 -20 -20 -20 -20 -20 -20 -20 -20 -20 -20 -20 -20 -20 2 14 16 17 23 6 18 -7 7 14 16
-20 -20 -20 -20 -20 -20 -20 -20 -8 5 4 0 -17 -20 -20 -20 -17 -13 -20 -6 -20 -20 -20 -20 -20 -17 -20 -20 -20 -20 -20 -20 1 13 16 18 17 18 20 13 21 21 9
-20 -20 -20 -20 -17 -15 -20 -8 -18 -20 -19 -20 -20 -20 -20 -20 -20 -20 -20 -20 -20 -20 -20 -20 -20 -20 -19 -17 -20 -20 -20 -20 -3 12 5 11 17 24 18 30 9 10 21
-20 -20 -20 -20 -20 -0 -15 -3 -20 -20 -20 -20 -20 -20 -20 -20 -18 -13 -20 -20 -20 -20 -20 -20 -20 -20 -16 5 -20 -20 -20 -20 -20 -20 -15 -13 10 -2 4 14 28 21 22
-20 -20 -20 -20 -17 3 -0 2 -19 -20 -20 -20 -18 -19 -20 -17 -8 -20 -20 -20 -20 -20 -20 -20 -20 -20 -20 -16 -20 -20 -20 -20 -20 4 -6 0 6 21 -9 8 18 22 19
-20 -20 -20 -20 -20 -20 -14 -11 -14 -20 -20 -17 -15 -7 -8 -6 -20 -20 -20 -20 -20 -20 -20 -20 -20 -20 -17 -17 -20 -20 -20 -20 -20 -14 -3 5 9 23 24 19 25 37 25
-20 -20 -20 -20 -20 -20 -20 -20 -19 -2 -17 -11 -16 0 7 -19 -20 -20 -20 -20 -20 -20 -20 -20 -20 -20 -20 -20 -20 -20 -20 -20 -20 -17 3 -0 -1 26 32 30 29 32 31
-20 -20 -20 -20 -20 -20 -20 -20 -17 -20 -16 -20 -20 -13 -20 -20 -20 -20 -20 -20 -20 -20 -20 -20 -20 -4 -20 -20 -20 -20 -20 -20 -19 -1 -7 -3 3 16 19 29 33 36 28
-20 -20 -20 -20 -20 -20 -20 -20 -20 -18 -20 -20 -20 -20 -20 -20 -20 -20 -20 -20 -20 -20 -20 -20 -20 -20 -2 -20 -20 -20 -20 -8 -2 -2 9 10 14 14 19 23 26 30 31
-20 -20 -20 -20 -20 -20 -20 -20 -20 -20 -20 -20 -20 -17 -20 -20 -20 -20 -20 -20 -20 -20 -20 -20 -20 -20 -20 -9 -20 -20 -20 -9 -4 5 7 11 5 12 17 20 20 23 26
-20 -20 -20 -20 -20 -20 -20 -20 -15 -20 -20 -20 -20 -20 -20 -3 -20 -20 -20 -20 -20 -20 -20 -20 -20 -20 -20 -20 -20 -17 -12 -20 -9 -2 2 6 6 4 5 15 19 19 21
-20 -20 -20 -20 -20 -20 -20 -20 -20 -20 -20 -20 -20 -20 -20 -20 -20 -20 -20 -20 -20 -20 -20 -20 -20 -20 -20 -20 -20 -20 -20 -16 -20 -20 -15 -6 -6 -5 -5 -7 10 11 19
-20 -20 -20 -20 -20 -20 -20 -20 -20 -20 -20 -20 -20 -20 -20 -20 -20 -20 -20 -20 -20 -20 -20 -20 -20 -20 -20 -20 -20 -20 -20 -20 -20 -20 -20 -20 -20 -16 -19 -12 -4 9 12
-20 -20 -20 -20 -20 -20 -20 -20 -20 -20 -20 -20 -20 -20 -20 -20 -20 -20 -20 -20 -20 -20 -20 -20 -20 -20 -20 -20 -20 -20 -20 -20 -20 -20 -20 -20 -20 -20 -20 -20 -20 -13 2